Wind_Speed
84 81 78 78 76 73 69 67 65 65 64 61 57 55 54 54 53 54 55 54 50 46 43 40 40 39 38 38 40 43 45 47 51 56 59 59 58 56 53 51 50 48 47 45 42 39 36 35 38 42 45 48 50 49 48 47 46 46 46 46 46 44 43 43 43 42 41 39 39 37 36 36 36 35 34 34 34 34 34 34 34 34 34 34 34 35 35
88 84 80 78 77 75 72 68 66 66 65 62 61 60 59 57 56 57 56 54 52 49 46 46 45 42 40 39 38 39 42 47 51 55 57 57 57 57 56 54 52 51 49 46 43 42 41 38 37 40 43 47 49 50 49 47 47 46 46 46 46 46 46 45 45 44 42 41 40 39 38 38 37 36 36 36 36 36 36 36 35 35 36 36 36 37 37
89 86 82 79 77 74 73 71 69 68 67 65 64 64 62 60 60 60 58 56 54 51 49 49 48 45 40 37 35 37 41 45 48 51 53 55 56 58 57 55 54 52 51 49 46 45 45 42 40 40 41 44 46 48 49 49 48 47 46 47 47 47 47 46 45 44 43 43 42 40 40 40 39 39 38 38 38 38 38 37 37 37 38 38 38 38 39
88 85 83 81 78 77 77 75 71 68 67 66 66 65 64 62 63 64 62 58 55 52 51 51 50 45 40 37 36 37 40 42 44 48 50 53 55 56 57 57 56 55 55 54 51 49 47 45 44 42 41 42 44 46 48 48 47 47 47 48 48 47 47 45 45 45 44 43 43 42 42 41 41 40 40 40 40 40 39 39 39 39 39 39 40 40 41
86 86 84 82 81 81 78 73 68 65 67 68 69 68 66 65 65 66 65 61 57 55 54 54 53 47 44 43 40 39 39 40 42 45 47 50 53 55 57 58 59 59 58 55 53 51 50 48 46 44 43 43 43 44 45 46 46 47 48 48 47 47 46 45 45 45 44 44 44 43 43 42 41 41 41 41 41 40 39 39 39 40 40 41 41 41 42
87 88 86 85 85 81 75 72 70 70 71 72 73 71 68 67 67 67 67 64 61 60 58 56 54 50 48 46 43 40 38 38 40 42 43 46 50 53 56 58 59 59 58 56 55 55 53 51 49 47 46 45 44 44 45 45 46 46 47 47 47 47 46 46 46 46 45 45 44 44 43 42 41 41 41 41 40 40 40 40 41 42 42 42 43 43 43
89 89 89 89 86 78 76 78 78 77 76 75 75 75 73 71 70 70 71 71 67 62 57 54 54 53 51 48 44 41 38 37 39 41 41 43 45 50 55 59 60 60 59 58 57 57 55 53 51 50 49 48 47 46 45 46 46 46 46 46 46 47 46 46 46 46 45 44 44 44 43 43 42 42 42 41 41 41 42 42 42 43 43 43 43 44 44
91 94 94 91 84 79 81 84 82 80 79 77 76 76 74 74 74 73 74 73 67 59 55 54 54 54 54 52 49 45 41 41 42 41 40 41 43 46 51 54 58 61 60 59 58 57 56 55 54 52 51 50 49 48 47 46 45 45 45 45 46 47 47 47 46 45 45 44 44 43 43 43 43 43 43 42 42 42 42 43 43 43 43 44 45 46 47
95 97 95 90 85 85 86 85 83 82 80 77 77 77 76 76 75 72 70 68 65 60 59 59 58 59 60 58 53 49 46 45 42 38 37 38 39 39 42 48 55 60 61 60 60 58 57 56 55 54 53 51 51 49 49 48 47 45 45 45 45 46 46 46 45 44 44 43 43 43 43 43 43 43 43 42 42 42 42 44 44 45 45 46 47 49 50
96 96 94 90 89 89 87 85 86 84 80 79 79 79 78 78 76 71 69 69 68 67 68 67 65 64 62 58 54 52 49 44 39 36 37 38 36 35 40 46 52 55 58 61 61 60 59 58 57 55 54 53 52 51 51 50 49 47 47 47 46 46 45 45 44 43 43 43 43 43 44 44 44 44 43 43 43 43 44 46 47 47 48 49 50 52 53
95 95 95 93 92 90 88 87 88 85 83 83 81 79 80 81 78 75 74 74 73 72 71 68 63 59 58 58 59 56 49 42 39 39 39 38 36 38 42 44 46 50 54 58 60 60 60 59 59 58 56 55 53 52 52 51 50 50 49 49 48 47 46 46 45 45 45 45 45 45 45 46 46 45 46 46 47 47 47 48 50 50 51 52 53 54 54
95 95 95 95 94 92 90 90 90 88 87 86 84 82 84 83 80 77 76 75 73 72 69 65 61 59 60 63 62 56 48 42 41 43 40 38 40 42 41 41 43 46 49 52 55 58 59 59 59 59 58 57 55 54 54 53 52 52 51 51 50 49 48 48 48 47 47 47 47 47 47 48 48 48 49 49 50 50 51 51 51 52 53 53 53 52 51
96 95 96 97 97 95 93 94 94 91 89 89 88 87 86 83 79 77 77 75 72 69 67 65 65 65 65 65 60 54 49 46 45 45 43 41 42 43 42 42 43 43 44 47 50 53 55 57 58 57 57 57 56 56 55 54 54 54 53 52 52 51 51 50 50 49 49 49 49 49 49 50 50 50 50 51 51 51 51 51 50 50 50 49 48 46 45
96 96 97 99 98 96 95 97 97 93 91 92 92 88 85 82 80 79 79 76 72 69 68 68 68 67 65 63 61 58 56 53 50 47 45 42 42 43 44 44 42 41 42 44 45 47 50 52 53 54 55 55 55 55 55 55 55 54 54 54 53 53 52 52 51 51 50 50 49 49 49 49 49 49 49 49 48 48 48 47 46 45 44 43 42 41 40
97 98 99 101 100 98 97 97 97 94 93 93 91 87 83 82 81 79 78 76 73 71 70 69 68 66 64 63 63 62 60 58 53 48 46 45 44 44 45 44 43 43 42 42 42 43 45 46 47 48 49 50 50 51 51 51 52 51 51 52 51 51 51 50 49 49 48 48 47 46 46 46 46 46 45 45 44 44 43 42 41 40 40 39 38 38 38
100 100 101 102 101 98 97 97 96 94 92 92 91 88 83 80 80 79 78 77 75 72 71 70 68 66 64 63 63 63 62 61 57 51 48 48 47 46 45 45 45 45 43 43 43 42 43 43 42 42 42 43 43 43 43 43 43 43 43 44 44 45 44 44 44 44 44 44 43 42 42 42 42 42 42 41 40 40 39 38 37 37 37 36 36 37 37
101 102 102 103 101 98 95 94 93 92 91 90 91 90 86 82 81 80 79 78 76 74 73 72 69 66 64 64 64 64 64 64 61 55 51 49 49 48 46 46 47 47 45 45 45 44 44 43 41 40 40 40 39 39 39 39 39 39 38 38 39 40 40 40 40 40 40 41 40 40 40 40 40 39 39 38 37 37 36 36 36 36 36 37 37 38 38
99 100 101 100 99 96 92 90 91 91 90 90 91 91 88 84 82 81 80 78 77 76 75 73 70 68 66 65 66 66 65 64 63 59 54 51 50 50 49 49 49 48 47 46 46 46 45 44 43 42 41 40 39 40 40 40 40 39 38 39 39 39 39 39 38 38 39 40 39 38 38 39 39 39 38 37 37 37 37 37 37 38 38 39 39 39 40
100 101 102 101 100 97 92 90 92 91 89 89 90 91 90 86 83 81 80 79 78 77 76 74 73 71 68 67 67 66 66 65 64 63 59 54 52 52 52 52 51 49 48 47 47 46 46 45 44 43 41 41 41 41 41 40 40 40 40 40 40 40 39 39 38 38 39 40 39 39 40 40 40 40 39 39 39 40 40 40 41 41 41 41 41 41 42
100 102 102 101 99 96 92 90 91 90 87 86 89 91 91 88 85 83 82 81 81 79 77 75 74 72 70 69 67 67 67 67 66 65 63 59 55 54 54 55 54 52 50 49 49 48 47 47 45 44 43 42 42 42 42 42 41 41 41 41 41 40 40 40 40 40 40 41 41 41 42 42 41 41 41 42 42 42 43 44 44 44 44 44 44 44 44
99 100 100 99 97 94 92 91 91 89 86 86 89 91 92 90 88 86 84 83 83 80 77 75 74 73 72 70 69 68 67 68 68 67 65 62 59 57 56 57 56 55 53 52 51 50 49 48 47 45 45 44 44 44 44 44 43 43 43 43 43 42 42 41 42 43 43 44 44 44 45 44 43 43 44 45 45 46 47 47 47 47 47 47 47 47 48
98 99 99 98 96 93 92 92 91 89 87 87 90 92 92 92 90 88 86 85 84 82 79 76 75 74 73 72 71 69 68 69 69 69 67 65 62 60 59 59 59 58 56 55 54 53 52 50 49 48 47 47 47 46 46 46 46 46 46 46 46 46 46 45 46 46 47 47 48 48 48 47 46 47 48 49 49 49 50 50 51 51 50 50 51 51 51
97 97 97 96 93 91 91 90 88 85 85 86 88 89 90 91 91 89 88 87 86 84 82 79 77 75 74 74 73 71 70 70 70 70 69 67 65 64 63 62 61 60 59 58 57 57 55 53 52 51 50 50 50 49 49 49 49 49 49 49 48 49 50 50 50 50 50 50 51 52 51 50 50 51 53 53 52 52 53 54 54 54 54 54 54 54 55
96 95 94 91 88 86 86 86 82 80 81 83 85 87 89 90 91 90 89 88 87 86 85 82 80 77 76 75 75 74 73 72 71 70 70 69 68 67 66 65 64 63 63 62 61 60 59 57 56 55 54 54 53 53 52 52 52 51 51 51 51 53 53 54 54 54 53 54 55 55 54 53 53 55 57 56 56 56 56 57 57 57 57 57 57 57 58
93 92 91 87 84 83 84 85 83 82 83 86 88 89 90 91 92 92 91 90 89 88 87 85 83 80 78 77 76 76 76 74 72 71 71 71 70 69 68 68 67 67 67 66 64 63 62 61 60 59 59 58 57 57 56 55 55 54 54 54 55 55 56 56 56 56 56 57 58 58 58 58 58 59 60 60 59 59 60 60 60 60 59 59 59 60 61
91 89 86 84 81 81 83 84 84 83 84 87 89 90 90 90 91 91 91 90 89 89 88 87 85 83 80 79 78 78 78 77 75 74 73 72 72 72 71 71 70 70 69 69 68 66 65 64 64 63 63 62 62 61 60 59 58 58 57 58 58 58 58 58 58 59 60 60 61 61 62 62 61 62 62 62 62 63 63 63 62 62 62 62 62 63 64
91 88 86 83 80 80 81 83 83 83 83 84 85 87 88 88 89 90 90 90 90 89 89 89 88 86 83 82 81 81 80 80 79 77 75 73 73 74 73 73 73 72 71 71 70 69 68 67 66 66 66 65 65 64 64 63 62 62 62 61 62 62 62 61 61 62 63 64 64 65 65 65 65 65 65 65 65 65 65 65 65 65 65 65 65 66 67
93 90 87 84 82 82 83 84 84 84 83 83 84 85 87 88 88 89 90 91 92 91 91 91 90 89 87 85 84 83 83 82 82 80 78 76 75 75 75 75 75 74 73 73 73 72 71 70 69 69 69 68 67 67 67 66 66 66 65 65 65 65 65 64 65 66 67 67 67 67 67 67 68 68 68 68 68 68 67 67 67 67 68 68 69 70 71
95 92 88 86 85 85 84 83 83 84 83 83 84 85 86 87 88 89 90 92 93 93 93 92 92 91 90 88 87 86 86 85 84 83 81 80 79 78 78 77 76 76 75 75 75 74 74 74 73 72 72 71 70 70 70 69 69 69 69 69 68 68 68 68 69 70 70 70 70 70 70 70 70 71 71 71 71 70 70 70 70 70 70 71 72 73 75
97 94 91 89 88 86 84 82 82 83 84 84 84 85 85 86 88 89 91 92 94 95 95 94 94 94 93 91 90 89 88 87 86 86 85 84 83 82 81 80 78 77 77 77 77 77 76 76 76 76 75 74 74 73 73 73 73 72 72 72 72 72 72 72 72 73 73 73 73 73 73 73 73 74 74 74 74 73 73 73 73 73 74 74 75 76 78
100 97 95 93 92 89 86 83 82 83 83 84 84 85 85 86 87 89 91 92 94 95 96 96 96 95 95 94 93 92 91 90 89 89 88 87 87 85 84 82 80 79 79 79 79 78 78 78 78 78 78 77 77 77 77 76 76 76 76 76 76 76 76 76 76 76 76 76 75 75 76 76 76 76 77 77 77 77 77 77 77 77 78 78 79 80 80
102 100 98 97 94 91 88 85 84 83 83 83 83 84 85 85 86 88 90 92 93 94 96 98 98 97 97 97 96 96 94 93 92 91 91 90 90 89 87 84 82 82 81 81 81 80 80 80 81 81 81 80 80 80 80 79 79 79 79 79 80 79 79 79 79 79 79 78 78 78 78 79 79 80 80 81 80 80 80 81 81 81 81 82 82 83 83
103 102 100 98 95 93 90 87 85 84 83 82 83 84 85 86 86 88 90 91 93 94 96 98 99 99 100 100 99 99 97 96 95 94 94 93 93 92 89 86 85 84 84 83 83 82 82 83 83 83 83 83 83 83 83 83 82 82 83 83 83 82 82 82 82 82 81 81 81 81 81 81 82 83 84 84 84 84 84 84 84 85 85 84 85 85 86
101 102 101 99 96 94 92 90 87 85 84 83 83 83 84 85 87 88 89 90 93 95 96 98 101 102 103 102 102 101 100 98 97 97 97 96 95 93 89 87 87 87 87 86 85 85 84 85 85 85 85 85 85 85 85 85 85 85 85 85 85 84 84 84 84 84 84 84 83 84 84 85 85 86 86 87 87 87 87 87 87 87 87 87 87 87 88
100 101 101 100 98 96 95 93 91 88 86 85 83 83 83 85 87 88 88 89 91 94 96 99 101 103 104 104 103 102 101 100 100 100 99 98 96 93 90 89 90 90 90 90 89 88 88 87 87 87 87 87 87 87 87 87 86 86 87 87 87 86 86 86 86 86 86 86 86 86 87 87 87 88 88 88 89 89 89 89 88 89 89 89 89 89 90
96 100 101 101 100 99 97 96 94 91 89 87 85 83 83 84 85 86 87 89 91 93 96 99 101 103 104 105 105 104 103 102 102 102 101 100 98 95 93 94 94 94 93 93 92 92 91 90 90 90 90 89 89 89 89 88 88 88 88 88 88 88 87 88 88 88 88 88 88 88 89 89 89 89 90 90 90 90 90 90 90 91 92 92 92 91 91
91 96 99 100 100 98 97 96 94 92 90 88 86 85 84 83 84 85 87 90 91 93 96 99 102 103 104 104 105 105 104 104 104 104 104 103 100 98 97 98 98 97 96 95 95 94 94 93 93 93 93 93 92 92 91 91 90 90 90 90 90 89 90 90 90 90 90 90 90 90 90 90 91 91 92 92 92 92 93 93 93 93 94 94 94 93 93
84 91 95 98 97 96 95 94 93 92 91 90 89 88 86 86 86 87 89 90 91 93 96 99 101 102 102 103 103 104 105 105 105 105 105 104 102 101 100 100 100 99 98 98 97 97 96 96 96 96 96 96 95 95 94 94 94 93 93 93 92 92 92 93 93 93 93 93 93 93 93 93 93 94 95 95 95 95 96 96 95 95 95 95 96 95 94
74 82 88 93 94 94 93 92 92 93 93 93 91 90 89 89 89 89 89 90 91 93 96 99 100 101 101 102 103 104 105 106 106 107 107 106 105 104 104 103 103 102 102 101 100 99 99 98 98 98 98 98 98 98 98 97 97 96 96 96 96 95 95 96 96 96 96 96 96 96 96 96 96 97 98 98 98 98 98 98 98 97 96 96 96 96 96
62 70 78 85 89 92 92 92 92 93 93 93 91 90 90 90 90 90 91 92 92 94 96 98 99 99 99 100 102 104 105 106 107 107 108 108 108 107 106 106 106 105 104 104 103 102 101 101 101 100 100 100 100 100 100 99 99 99 99 99 98 98 98 98 98 98 99 99 99 99 98 99 99 99 100 100 99 99 99 99 99 99 98 98 98 98 98
50 58 66 74 81 87 90 91 91 92 92 93 93 93 93 93 92 92 92 93 93 94 96 96 96 97 98 99 101 103 104 105 106 107 108 108 109 108 108 108 107 107 106 106 105 105 104 104 103 103 103 102 102 102 101 101 101 101 101 101 101 100 100 100 101 101 101 102 102 101 101 101 101 101 101 101 101 101 101 101 100 100 100 100 100 100 99
40 46 54 62 70 77 83 87 89 90 91 92 93 94 95 94 93 93 93 94 94 94 95 95 96 97 99 100 101 102 103 104 105 107 107 108 108 108 108 108 108 108 108 108 107 107 107 106 106 106 105 105 105 104 104 103 103 103 103 103 103 102 102 102 102 102 103 103 103 103 102 102 103 103 102 102 102 102 102 102 102 102 102 102 101 101 99
33 37 43 49 57 64 71 78 84 88 91 93 93 94 95 95 95 95 95 95 95 95 95 96 96 97 99 100 101 101 102 103 104 105 106 107 107 107 108 108 109 109 109 109 109 108 108 108 108 108 108 108 107 107 107 106 106 105 105 105 105 104 104 104 104 104 104 104 104 103 103 103 103 104 104 103 103 104 104 104 103 103 102 102 102 101 99
29 32 36 40 46 52 58 66 73 80 86 90 93 94 95 96 97 97 98 98 97 97 97 97 97 97 98 99 99 100 100 102 102 103 104 105 106 106 107 108 109 110 110 109 109 109 109 109 109 109 109 109 109 109 109 109 108 108 107 107 106 106 106 106 105 105 104 104 104 104 103 104 104 105 105 105 105 104 104 104 104 104 104 102 101 99 96
27 29 31 35 39 43 48 54 61 69 77 83 88 92 94 96 97 98 99 100 100 101 100 99 99 99 99 99 99 99 100 101 101 102 102 103 104 105 106 107 108 109 109 109 109 109 109 110 110 110 110 110 110 110 110 110 110 109 109 109 108 108 108 107 107 107 106 106 106 105 105 105 105 106 106 106 106 105 105 105 104 103 101 98 95 93 92
28 29 31 33 35 38 41 47 52 59 66 73 79 85 90 93 95 97 99 100 101 102 102 102 101 101 100 100 99 99 99 99 99 100 100 101 102 103 104 105 106 106 106 107 108 109 109 110 110 110 110 111 111 111 111 111 111 110 110 110 110 110 109 109 109 108 108 107 107 107 107 106 106 106 106 105 104 103 102 100 99 97 94 92 90 90 92
31 32 33 33 34 36 39 43 47 51 56 62 68 74 80 86 90 94 97 99 101 102 103 104 104 104 103 102 100 99 98 98 98 98 99 100 100 101 102 103 104 105 105 105 106 107 108 109 109 109 110 110 110 110 110 110 110 110 110 110 110 110 110 110 109 109 108 108 108 108 107 106 105 104 104 102 100 98 96 94 93 92 90 90 91 93 96
32 34 35 35 35 37 40 43 45 48 52 56 60 65 71 76 82 87 92 96 99 101 103 104 105 106 105 104 103 101 100 99 98 99 99 99 99 100 100 101 102 103 103 104 105 106 106 107 107 107 108 108 109 109 110 110 110 110 110 110 110 109 109 109 108 108 108 108 107 107 106 106 104 102 100 98 97 96 94 93 92 92 92 93 96 100 103
30 34 36 38 38 40 41 43 45 46 49 52 56 59 64 69 74 79 83 88 93 97 100 102 104 105 105 105 105 103 102 101 101 100 100 100 100 100 100 100 100 101 102 102 103 104 105 105 106 106 106 107 108 108 108 109 109 109 109 109 109 109 108 108 108 108 107 107 106 105 104 103 102 101 98 97 96 96 96 96 96 97 98 100 102 105 106
29 31 35 39 41 42 43 44 44 44 46 48 52 55 59 63 67 71 76 80 84 89 93 96 99 101 103 104 104 104 104 104 103 103 103 102 102 102 102 102 102 102 102 102 103 104 104 104 105 105 106 106 107 107 108 108 108 108 108 108 108 107 107 107 107 107 106 106 105 104 103 102 102 102 101 99 99 99 100 100 101 102 103 104 105 106 107
32 31 33 36 40 43 44 45 45 45 46 47 49 51 54 58 61 65 69 72 76 79 83 87 90 93 96 98 100 102 103 104 104 105 105 105 105 105 105 105 105 104 104 104 104 104 105 105 105 105 105 105 106 106 107 107 107 107 107 107 107 106 106 106 106 107 106 106 105 104 103 103 103 103 103 103 103 103 104 104 105 105 106 108 109 110 111
37 36 35 35 37 40 43 45 46 47 48 48 49 50 52 54 57 60 63 66 68 71 74 77 80 83 86 89 92 94 97 99 101 103 104 105 106 106 107 107 108 107 107 107 107 107 107 107 106 106 106 106 107 107 107 107 107 107 107 107 107 107 107 107 107 108 108 108 107 107 106 106 106 106 106 106 107 107 108 108 109 110 111 112 113 114 115
Wind_Direction
225 225 222 221 222 222 220 218 217 220 222 221 219 219 218 216 219 224 228 232 231 229 227 221 217 217 216 220 223 222 221 218 217 218 219 218 217 216 214 214 217 222 223 221 224 225 223 224 223 220 217 215 213 213 215 218 220 222 224 226 227 228 228 231 233 235 237 239 241 243 244 246 248 250 251 253 255 257 259 259 261 263 266 268 270 273 276
221 222 221 221 221 221 221 219 218 219 222 221 217 217 217 214 216 222 226 230 231 231 229 225 221 218 217 219 222 223 221 219 218 220 220 219 218 217 215 214 215 220 224 225 226 227 227 228 227 224 221 219 218 216 217 218 219 221 223 226 228 229 230 232 235 237 238 240 241 243 244 247 248 250 251 253 255 257 258 260 261 263 265 267 269 272 275
220 220 219 220 220 221 221 220 217 217 219 220 218 217 217 215 214 219 224 227 229 230 231 230 226 221 218 219 222 225 224 220 220 222 221 219 218 218 216 215 215 218 223 228 229 229 230 230 230 229 226 223 222 221 220 220 221 222 223 225 227 229 231 232 235 238 239 241 243 244 245 247 248 250 251 252 253 255 256 258 259 260 263 266 269 273 276
220 220 219 219 218 219 220 220 218 216 218 220 221 219 218 216 215 217 221 224 226 228 231 233 230 223 219 219 220 224 225 223 222 223 221 219 218 218 217 216 216 218 221 225 227 228 229 230 230 230 228 226 225 224 224 224 224 224 225 227 228 230 232 233 235 238 241 243 245 246 246 247 249 250 251 252 253 254 256 257 260 262 265 268 271 275 278
219 220 220 219 218 218 219 221 220 218 217 219 221 219 217 217 217 217 220 222 224 225 228 231 231 225 222 221 219 220 224 224 224 225 223 220 218 217 218 217 218 219 220 222 225 227 228 229 229 229 229 228 227 226 226 226 226 227 228 230 231 232 234 235 236 239 241 244 245 246 247 248 250 251 252 253 254 257 259 261 263 265 268 270 273 276 279
217 219 219 219 219 218 218 219 219 218 216 216 218 219 217 217 217 218 220 220 221 224 226 229 233 232 228 225 221 221 223 224 226 227 225 223 220 218 218 218 219 221 221 221 224 226 226 227 227 228 229 229 228 227 227 226 227 228 229 231 233 234 236 237 239 240 241 243 245 247 249 250 251 251 252 254 256 259 261 263 265 267 269 272 275 277 279
217 218 219 219 218 216 216 217 217 217 216 215 216 218 217 216 216 217 219 219 220 223 225 228 232 235 234 230 226 224 223 223 224 225 225 223 221 219 219 219 220 222 222 222 223 226 227 227 227 228 229 230 230 229 229 229 229 230 231 233 235 237 238 240 242 243 244 246 247 250 252 252 252 253 253 255 257 259 262 264 266 269 272 274 276 277 278
216 217 218 218 217 214 215 217 217 217 217 215 215 217 218 217 217 217 218 220 221 223 227 229 230 234 235 233 229 225 222 221 222 222 223 224 222 221 221 220 221 223 224 224 225 226 227 228 228 229 230 231 231 231 232 232 232 232 234 236 238 240 241 243 244 246 247 248 250 251 253 254 255 256 257 258 259 262 265 267 269 271 273 274 275 277 278
216 217 219 218 216 215 215 216 217 218 218 216 215 216 217 219 219 218 219 221 221 221 224 227 226 228 232 232 229 226 223 222 223 223 224 226 225 224 224 223 223 223 224 225 226 226 227 228 229 230 230 231 232 233 234 234 234 234 235 237 239 241 243 245 246 247 249 250 251 252 253 255 257 258 260 262 264 265 267 269 270 272 273 275 276 277 279
215 217 218 218 217 216 215 216 217 218 218 218 216 215 216 218 219 218 218 220 220 218 221 224 225 228 232 233 232 229 226 223 224 223 222 224 223 222 224 225 224 224 224 225 226 227 227 228 229 230 231 232 233 234 235 236 237 237 237 238 240 242 245 247 248 249 251 252 252 253 254 256 258 260 262 264 265 266 268 269 271 273 274 276 277 278 280
213 215 217 217 217 216 215 215 217 217 217 219 218 216 217 218 217 216 216 217 218 218 221 225 228 231 234 236 235 234 229 224 224 224 221 219 219 220 223 225 226 225 225 226 227 228 229 229 230 231 231 232 233 235 237 238 239 239 240 241 242 243 245 248 249 251 252 253 254 256 257 259 260 262 263 265 266 267 269 270 272 273 275 276 277 279 280
213 213 215 216 217 216 215 215 216 216 216 218 218 216 217 218 216 216 217 217 217 218 220 223 226 228 230 233 235 235 230 225 225 227 223 217 217 220 222 225 227 227 227 227 228 229 230 231 232 232 233 234 235 236 237 239 240 241 242 243 244 245 247 248 250 251 253 255 256 258 259 261 262 263 265 266 267 268 269 270 272 273 274 275 277 278 279
212 213 214 215 216 215 214 215 216 214 214 217 218 216 216 216 215 216 218 219 218 218 219 221 224 226 229 233 236 235 231 226 225 226 224 218 216 219 220 222 225 226 228 229 229 230 231 232 233 234 235 235 236 237 238 239 241 242 244 245 246 247 249 250 252 253 255 256 258 259 261 262 263 264 265 265 266 267 268 269 270 271 272 274 275 276 277
212 212 213 214 215 215 214 215 216 214 213 216 218 217 216 215 214 214 217 218 217 217 218 220 223 226 228 232 235 235 233 230 225 223 224 222 218 217 220 222 223 224 226 228 230 231 232 233 233 235 236 237 238 239 240 241 243 244 246 247 248 249 250 251 253 254 255 256 257 258 260 261 261 262 263 264 265 266 267 268 269 270 271 272 273 275 278
212 213 213 214 214 214 213 214 215 214 213 214 217 217 216 215 215 214 216 217 217 217 219 221 223 226 227 230 233 235 236 235 229 223 223 224 221 218 219 222 223 224 225 227 228 229 231 232 232 233 235 237 238 239 240 242 243 245 246 247 248 249 250 251 252 253 253 254 254 255 256 257 258 260 261 262 264 265 266 268 269 270 272 273 275 277 279
211 213 214 215 215 214 212 213 214 214 213 213 215 217 216 214 214 215 216 217 217 218 220 222 223 225 227 229 231 233 235 236 233 226 222 223 224 221 219 221 224 224 225 226 227 228 229 230 229 229 231 232 234 235 237 238 239 240 242 244 245 245 246 247 248 249 250 250 250 251 252 254 256 258 260 262 264 266 268 269 270 271 273 274 276 277 279
211 212 213 214 215 214 212 212 213 214 213 213 215 217 216 214 213 214 215 216 217 218 220 222 223 224 226 228 229 231 233 235 235 231 223 221 224 224 223 223 224 224 224 224 226 226 228 228 227 226 227 228 229 230 231 232 233 233 234 238 240 241 242 243 245 246 248 250 250 251 253 255 257 258 260 262 264 266 268 269 270 271 272 274 275 277 279
211 213 214 214 215 214 212 212 213 213 212 212 213 216 217 215 214 214 215 215 216 218 220 222 223 223 224 226 228 230 231 234 235 234 228 223 222 224 224 224 224 223 222 223 225 226 227 228 228 227 226 226 227 228 228 229 230 230 230 233 237 238 239 241 244 246 249 251 252 253 254 256 258 259 261 262 264 266 268 269 270 271 272 273 275 278 280
210 212 214 214 214 214 212 211 212 213 212 211 212 214 216 216 214 214 215 215 216 218 220 222 223 223 223 225 227 229 230 232 234 235 233 228 223 222 224 225 226 224 223 223 225 227 228 229 229 229 228 226 226 227 227 228 230 230 230 232 236 239 241 243 246 248 250 253 254 255 256 258 260 262 264 266 268 269 270 271 271 271 272 274 276 279 281
210 212 213 213 213 213 212 211 212 213 211 210 211 213 215 216 214 214 214 215 216 218 219 221 222 223 224 224 226 227 229 231 233 234 234 231 226 223 223 224 226 227 227 227 227 228 230 231 232 231 230 230 230 231 231 231 232 234 234 235 238 242 244 247 249 250 253 255 256 257 259 260 262 265 268 269 270 271 272 273 273 274 275 276 278 280 282
210 212 214 213 213 213 212 211 212 212 211 211 211 213 214 215 214 213 214 215 216 217 219 220 222 223 224 224 225 226 228 231 232 233 233 232 229 225 223 224 225 227 229 230 230 231 231 233 233 234 234 234 234 235 237 237 238 239 240 241 243 245 248 250 252 253 255 257 258 260 261 263 264 267 269 270 271 272 272 273 274 275 276 278 279 281 282
211 213 214 214 212 212 212 212 210 209 209 210 211 212 213 214 214 213 213 214 215 216 217 219 221 222 223 224 225 226 227 229 231 232 233 232 230 228 225 224 224 224 226 229 232 232 233 233 234 236 237 238 238 239 240 241 243 244 246 247 248 250 252 253 254 256 258 259 261 262 263 265 268 269 270 270 271 272 273 274 275 276 277 278 280 281 283
211 213 215 214 212 211 212 212 210 207 208 210 212 212 212 213 214 214 214 214 215 216 217 218 220 222 223 224 225 225 226 229 231 232 233 232 231 229 228 226 224 223 224 226 229 232 233 234 235 236 238 240 242 243 243 244 246 247 249 250 252 253 255 256 257 258 260 262 263 264 266 267 269 270 271 271 272 274 275 276 277 278 279 280 281 282 283
211 213 215 215 213 211 212 213 211 208 209 212 213 213 213 214 214 215 214 214 215 216 217 218 219 221 223 224 225 225 226 227 230 232 233 233 232 230 229 229 227 226 225 226 227 230 233 235 236 237 239 240 242 244 245 246 247 249 251 252 253 255 256 258 259 260 262 263 264 266 267 267 268 269 271 272 273 274 275 276 277 279 279 280 281 282 283
211 212 214 215 213 212 213 214 212 209 209 211 213 214 214 213 214 215 215 215 215 216 217 218 219 220 222 224 225 225 226 227 228 230 232 233 233 231 231 230 230 229 228 228 229 230 232 234 236 238 239 241 243 244 246 247 248 249 251 253 254 256 257 259 261 262 264 264 266 267 267 268 268 269 271 273 274 275 276 276 277 278 279 280 281 282 283
211 213 214 214 214 213 213 214 213 211 209 210 212 213 213 213 214 215 216 216 216 217 218 219 219 220 222 223 225 226 226 227 228 229 230 232 233 233 232 232 231 231 231 231 232 232 233 234 236 238 241 242 244 245 246 248 249 250 251 253 255 257 258 260 262 263 265 266 267 268 268 269 270 270 271 273 274 275 276 277 278 279 280 281 282 283 284
211 212 213 214 214 214 214 215 215 213 211 211 212 213 214 214 214 214 216 217 217 218 219 219 220 221 222 223 225 226 227 227 228 229 229 230 232 233 233 233 233 233 234 234 235 235 236 236 237 239 241 243 245 247 248 250 251 252 253 255 256 258 259 261 263 264 265 266 267 268 269 271 271 272 273 274 275 276 277 278 280 281 282 283 284 285 286
211 211 212 213 214 215 215 214 215 214 213 212 212 213 214 214 214 214 215 216 218 218 219 220 221 221 222 223 225 226 227 227 229 230 230 230 231 232 233 234 235 235 235 236 237 238 238 239 240 241 242 244 246 248 250 251 253 254 256 257 258 260 261 262 263 264 265 266 268 269 270 271 272 273 274 274 275 277 278 279 281 282 283 284 285 286 287
212 212 211 212 213 215 215 214 214 214 213 213 213 214 214 214 214 215 215 216 218 219 220 220 221 222 223 224 225 226 227 228 229 230 231 231 231 231 232 233 235 236 237 238 239 240 241 241 242 243 244 245 247 249 250 252 254 255 257 258 259 261 262 263 264 265 266 267 269 269 271 271 272 273 275 275 277 278 279 280 281 282 283 284 285 286 287
213 212 212 212 213 215 215 215 214 214 213 213 214 214 215 214 214 215 216 217 217 219 220 221 222 223 223 224 226 227 228 228 229 230 230 231 232 232 233 233 234 235 237 239 240 241 243 244 245 246 246 247 248 250 251 253 254 256 257 259 260 261 262 263 265 266 267 268 269 270 271 272 273 274 275 276 277 278 279 280 281 281 282 283 284 285 286
214 213 213 212 213 214 214 215 215 215 214 213 214 215 215 215 215 215 216 217 218 219 220 221 222 223 224 225 226 228 228 229 230 230 231 231 232 232 233 234 234 235 237 238 240 242 244 245 247 248 249 250 251 252 253 254 255 257 258 260 261 262 263 264 265 266 267 268 270 271 272 272 273 274 275 276 277 278 279 280 281 281 282 283 284 285 286
214 214 214 213 213 213 214 214 215 215 215 214 214 215 216 216 216 216 217 217 218 219 220 221 222 223 224 225 226 228 229 230 230 231 232 232 233 233 233 234 235 236 237 238 240 241 243 245 247 249 250 251 252 254 255 256 257 258 259 260 261 262 263 264 265 266 267 268 269 270 271 272 273 274 275 276 277 278 279 280 280 281 282 283 284 285 286
214 215 215 215 214 213 214 214 215 215 215 214 214 215 216 217 217 218 218 218 219 219 220 221 222 223 224 225 226 228 229 230 231 232 233 233 234 235 234 234 236 237 238 239 240 241 243 244 246 248 249 251 252 254 255 256 257 258 259 260 261 262 263 264 265 266 268 269 270 271 272 273 273 274 275 276 277 278 279 280 281 282 283 283 284 285 286
215 216 216 216 215 214 214 214 214 215 215 215 215 215 216 217 218 219 219 219 219 220 221 222 223 223 224 225 227 228 229 230 231 233 233 234 235 236 236 237 238 239 239 240 240 241 242 244 245 247 248 250 251 253 254 255 256 258 259 260 261 262 264 265 266 267 268 269 270 271 272 272 273 274 275 276 277 278 279 280 281 282 282 283 284 285 286
215 216 217 217 217 215 214 214 214 215 215 215 215 215 216 217 219 220 220 221 221 221 222 223 224 224 225 226 227 228 229 230 232 234 235 235 236 237 238 239 240 241 241 241 241 241 242 243 245 246 247 249 250 251 253 254 256 257 258 260 261 262 263 265 266 266 267 268 269 270 271 272 273 274 275 276 277 278 279 280 280 281 282 283 284 285 286
216 216 217 218 218 216 215 214 214 214 215 215 215 216 217 218 219 220 221 222 223 223 224 224 225 225 225 226 227 228 229 230 232 234 236 236 236 237 239 240 240 241 242 243 243 243 243 244 245 246 248 249 250 251 253 254 255 256 258 259 260 261 263 264 264 265 266 267 268 269 270 271 272 273 274 275 275 277 278 278 279 280 281 283 283 284 285
217 217 218 219 219 218 216 215 214 214 215 215 215 216 217 218 219 220 222 223 224 224 225 226 225 225 225 226 226 228 229 230 232 234 236 237 237 237 238 240 241 242 243 244 245 245 245 246 246 247 248 249 250 251 252 254 255 256 257 258 259 260 261 262 263 264 265 266 267 268 269 270 271 272 273 274 275 276 277 278 279 280 281 282 283 284 284
217 218 219 220 220 220 219 217 216 215 216 216 216 216 216 218 219 220 221 223 224 225 226 227 227 226 226 226 227 228 229 230 232 234 236 237 238 238 239 241 242 243 243 244 245 246 247 247 248 248 249 250 251 252 253 254 255 256 257 258 259 260 261 262 263 264 265 266 267 268 269 270 271 272 273 274 275 276 277 278 279 280 281 282 283 284 284
218 219 220 221 221 222 221 220 218 217 217 217 217 217 217 218 219 220 221 223 224 225 227 228 228 227 226 226 227 228 229 230 232 233 235 236 237 238 239 240 242 243 244 244 245 246 247 248 249 250 250 251 252 253 254 255 256 257 258 259 260 261 262 263 264 265 266 267 267 268 269 270 271 272 273 274 276 277 278 279 280 281 282 282 283 284 285
219 220 221 221 222 222 222 222 221 220 219 219 219 219 220 220 220 221 222 223 224 225 227 228 229 228 228 228 228 229 230 230 231 233 234 236 237 238 239 240 241 243 244 245 246 247 248 249 250 251 251 252 253 254 254 255 256 257 258 260 260 261 263 264 265 266 267 268 268 269 270 271 272 273 274 275 276 277 278 279 280 281 282 283 284 284 286
218 220 221 221 222 222 223 223 223 222 221 220 220 220 221 222 222 223 224 225 225 226 227 229 229 230 230 229 229 230 230 231 232 233 234 235 237 238 239 240 241 243 244 245 246 247 248 249 250 251 252 253 254 255 255 256 257 258 259 260 261 262 263 264 265 266 267 268 269 270 271 272 273 274 275 276 277 278 279 280 280 281 282 283 284 285 286
216 218 220 221 222 222 223 223 224 223 223 222 221 221 221 222 223 224 226 227 227 228 229 229 230 230 230 231 230 230 231 231 232 233 234 236 237 238 239 240 242 243 244 245 246 248 248 249 250 251 252 253 254 255 256 257 257 258 259 260 261 262 263 264 265 266 267 268 269 270 271 272 273 274 275 276 277 277 278 279 280 281 282 282 283 284 285
211 215 217 219 220 221 222 223 223 224 224 224 223 223 222 223 223 224 226 227 229 229 230 231 231 231 232 232 232 232 232 232 233 234 234 236 237 238 239 240 241 243 244 245 246 248 249 250 251 252 252 253 254 255 256 257 257 258 259 260 261 262 262 263 264 265 266 267 269 270 271 272 273 273 274 275 276 277 278 279 279 280 281 282 283 283 284
207 210 213 215 217 218 219 220 222 223 224 224 224 224 224 223 223 224 226 227 229 230 231 232 232 233 234 234 234 234 234 234 235 235 235 236 237 238 239 240 241 242 244 245 246 247 249 250 251 252 253 254 254 255 256 257 258 258 259 260 260 261 262 263 264 265 266 266 268 269 270 271 272 273 274 275 275 276 277 278 279 280 281 281 282 282 282
203 206 209 212 213 214 215 216 218 220 222 223 224 225 225 224 224 225 225 227 228 230 231 232 233 233 234 235 235 235 235 236 236 236 237 237 238 238 239 240 241 243 244 245 246 247 248 250 251 252 253 254 255 256 256 257 258 259 260 260 261 262 263 263 264 265 265 266 267 268 269 270 271 272 273 274 275 276 277 277 278 279 280 280 280 279 279
199 202 206 210 211 211 211 212 214 216 218 220 222 223 225 225 226 226 226 227 228 230 231 232 233 234 235 236 236 236 237 237 238 238 239 239 240 240 241 241 242 243 244 245 246 247 248 249 250 251 252 254 255 256 257 258 259 259 260 261 262 262 263 264 264 265 266 267 267 268 268 269 270 271 272 274 275 276 276 277 277 277 277 276 275 274 274
197 201 205 208 208 208 209 210 211 212 215 216 218 220 222 224 225 226 227 228 229 230 231 232 233 234 235 236 237 237 238 238 239 240 240 241 241 242 242 243 244 244 244 245 246 248 249 250 250 251 252 253 254 256 257 257 258 259 260 261 261 262 263 264 265 265 266 267 267 268 269 269 270 271 272 273 273 274 273 273 273 273 272 271 271 271 271
196 200 204 207 208 208 210 210 209 209 210 213 214 216 218 220 222 223 225 227 228 229 231 232 233 234 235 236 236 237 238 239 239 240 241 241 242 243 243 244 245 245 245 246 246 247 248 249 250 251 252 253 254 255 256 257 258 259 259 260 261 262 263 263 264 265 266 266 267 268 269 269 270 270 271 271 271 271 270 269 269 268 268 268 268 270 272
199 200 202 205 207 210 212 212 211 210 210 211 212 214 216 217 219 220 222 224 226 228 230 231 233 234 235 236 236 237 238 238 239 240 241 242 242 243 244 244 245 246 247 247 247 248 248 249 250 251 251 252 253 254 255 256 257 258 259 260 260 261 262 263 263 264 265 265 266 267 268 268 269 269 268 268 268 268 267 267 267 267 267 268 269 271 273
208 206 204 205 207 211 213 213 212 211 211 212 213 214 215 216 218 219 221 222 224 226 228 230 231 233 234 235 236 237 237 238 239 240 241 242 242 243 244 245 245 245 246 247 248 249 249 250 250 251 251 252 253 254 254 255 256 257 258 259 260 260 261 262 263 263 264 264 265 266 266 266 266 267 267 266 266 266 266 266 266 267 268 268 270 271 272
212 212 211 209 210 212 215 215 212 209 208 210 212 213 214 216 217 219 220 222 223 225 226 228 230 232 233 234 235 236 237 238 238 239 240 241 242 243 244 245 246 246 247 247 248 249 250 250 251 252 252 253 253 254 255 256 256 257 258 259 259 260 261 261 262 263 263 264 264 264 265 265 266 266 266 267 267 267 267 267 267 268 268 269 270 271 272
212 213 214 214 214 214 215 216 215 212 209 208 209 211 213 214 216 218 219 221 223 224 226 227 229 230 232 233 234 235 236 236 237 238 239 240 241 242 243 244 245 246 247 248 248 249 250 251 252 252 253 254 254 255 256 256 257 257 258 259 259 260 261 262 262 263 263 264 264 264 264 264 265 265 266 267 267 268 268 268 269 269 269 270 271 272 273
Height
10726 10737 10747 10752 10758 10768 10775 10781 10787 10791 10794 10801 10808 10812 10814 10818 10820 10820 10819 10824 10831 10836 10840 10845 10847 10849 10853 10854 10856 10860 10865 10869 10873 10873 10874 10879 10886 10892 10897 10902 10904 10903 10905 10909 10913 10915 10917 10919 10920 10923 10925 10926 10928 10931 10934 10939 10943 10946 10949 10952 10954 10957 10959 10960 10961 10964 10967 10969 10970 10972 10974 10974 10975 10977 10978 10979 10979 10979 10979 10980 10980 10981 10981 10981 10981 10981 10981
10715 10726 10737 10744 10751 10760 10767 10775 10782 10785 10789 10796 10801 10803 10806 10812 10815 10813 10815 10820 10825 10830 10834 10837 10841 10845 10848 10851 10855 10858 10861 10862 10864 10866 10870 10877 10883 10887 10892 10897 10900 10901 10902 10905 10909 10912 10914 10916 10918 10920 10922 10924 10926 10929 10932 10935 10938 10942 10945 10947 10950 10952 10954 10956 10958 10960 10963 10964 10966 10968 10969 10970 10971 10972 10974 10974 10974 10975 10975 10976 10977 10977 10977 10977 10978 10978 10978
10706 10718 10730 10737 10745 10755 10760 10766 10773 10778 10783 10789 10793 10796 10800 10805 10809 10809 10810 10814 10819 10823 10826 10829 10835 10842 10846 10851 10854 10854 10855 10858 10860 10863 10867 10872 10877 10882 10888 10893 10897 10900 10901 10903 10905 10908 10910 10913 10915 10917 10920 10922 10924 10927 10929 10932 10935 10938 10941 10943 10945 10947 10949 10952 10955 10956 10958 10960 10962 10964 10965 10966 10967 10968 10969 10970 10969 10970 10971 10972 10973 10973 10974 10974 10974 10975 10974
10703 10715 10724 10731 10740 10746 10749 10755 10766 10775 10781 10784 10787 10791 10795 10800 10803 10803 10804 10809 10814 10818 10821 10824 10830 10838 10844 10847 10849 10849 10850 10854 10856 10857 10861 10866 10872 10877 10883 10887 10891 10894 10895 10896 10900 10903 10906 10909 10911 10914 10917 10919 10921 10923 10926 10929 10933 10935 10937 10938 10941 10943 10945 10949 10951 10952 10954 10956 10957 10959 10961 10962 10963 10964 10965 10965 10965 10966 10967 10968 10969 10970 10971 10971 10971 10971 10971
10702 10709 10716 10725 10730 10735 10744 10756 10767 10773 10776 10778 10780 10784 10789 10793 10796 10797 10800 10806 10810 10813 10815 10817 10823 10832 10837 10838 10842 10844 10846 10850 10852 10854 10858 10863 10867 10872 10876 10880 10883 10885 10888 10893 10897 10900 10902 10904 10907 10910 10912 10914 10917 10920 10923 10927 10929 10931 10933 10935 10938 10940 10942 10945 10947 10948 10950 10951 10953 10954 10956 10958 10959 10960 10960 10961 10961 10963 10964 10965 10966 10966 10967 10967 10967 10967 10967
10695 10699 10708 10715 10718 10730 10747 10754 10757 10761 10766 10769 10772 10776 10782 10786 10789 10793 10796 10800 10803 10804 10809 10814 10819 10825 10829 10833 10838 10842 10845 10848 10850 10851 10855 10858 10862 10868 10872 10875 10877 10879 10885 10890 10891 10893 10895 10899 10902 10905 10907 10910 10913 10916 10919 10922 10925 10927 10930 10932 10934 10936 10939 10941 10942 10944 10946 10947 10948 10950 10952 10954 10955 10956 10957 10957 10958 10959 10960 10961 10961 10961 10962 10962 10963 10963 10962
10687 10692 10698 10701 10711 10731 10742 10739 10741 10748 10753 10759 10763 10766 10772 10777 10781 10785 10787 10790 10795 10799 10806 10812 10815 10818 10823 10829 10835 10839 10842 10845 10846 10848 10851 10854 10858 10863 10866 10869 10873 10876 10880 10884 10885 10888 10892 10895 10899 10901 10903 10906 10909 10912 10915 10918 10921 10924 10926 10928 10930 10932 10935 10936 10938 10940 10942 10944 10945 10947 10948 10949 10950 10951 10952 10954 10955 10956 10956 10956 10957 10957 10958 10958 10958 10958 10958
10677 10678 10681 10691 10710 10726 10727 10725 10733 10740 10743 10751 10757 10761 10767 10771 10773 10777 10780 10784 10793 10801 10805 10808 10811 10814 10818 10823 10828 10833 10837 10839 10840 10844 10847 10850 10854 10858 10862 10868 10871 10872 10876 10880 10883 10885 10888 10891 10894 10897 10899 10903 10906 10909 10912 10914 10917 10920 10922 10925 10926 10928 10930 10932 10934 10936 10938 10940 10942 10943 10944 10944 10945 10946 10947 10949 10951 10952 10952 10952 10952 10953 10954 10954 10953 10953 10953
10662 10665 10673 10690 10704 10710 10713 10721 10728 10731 10737 10746 10752 10755 10760 10763 10766 10773 10780 10785 10793 10799 10799 10799 10803 10805 10808 10814 10821 10826 10830 10833 10838 10844 10848 10850 10853 10859 10863 10865 10865 10867 10871 10875 10877 10880 10883 10887 10890 10893 10896 10899 10902 10905 10908 10910 10913 10916 10918 10920 10921 10923 10925 10927 10930 10932 10934 10936 10937 10938 10939 10939 10940 10941 10942 10944 10946 10947 10947 10947 10947 10948 10949 10949 10948 10948 10948
10651 10660 10670 10683 10691 10697 10708 10716 10718 10723 10733 10739 10742 10747 10752 10755 10762 10770 10776 10779 10784 10788 10788 10789 10793 10799 10805 10811 10816 10820 10825 10832 10839 10844 10845 10847 10852 10856 10856 10855 10857 10862 10866 10868 10871 10875 10878 10882 10885 10888 10892 10895 10898 10901 10903 10905 10908 10911 10913 10914 10916 10918 10920 10923 10925 10927 10929 10930 10931 10932 10933 10934 10935 10937 10938 10939 10941 10942 10942 10942 10942 10943 10943 10943 10943 10943 10942
10643 10652 10661 10671 10680 10689 10700 10706 10708 10716 10725 10727 10733 10742 10746 10747 10753 10759 10763 10768 10774 10779 10783 10787 10795 10802 10805 10805 10808 10815 10824 10832 10837 10839 10840 10845 10848 10848 10848 10850 10854 10857 10860 10863 10867 10870 10873 10877 10880 10883 10887 10890 10894 10897 10898 10901 10904 10906 10907 10909 10911 10914 10916 10918 10920 10921 10923 10924 10926 10927 10928 10929 10931 10932 10933 10934 10935 10936 10937 10937 10937 10938 10938 10938 10938 10937 10937
10635 10645 10653 10661 10669 10679 10690 10695 10697 10705 10713 10717 10725 10733 10733 10735 10744 10753 10757 10763 10768 10774 10781 10788 10794 10797 10795 10794 10803 10815 10824 10830 10833 10834 10837 10842 10843 10843 10846 10849 10850 10852 10856 10860 10863 10866 10869 10872 10875 10879 10883 10886 10889 10891 10894 10897 10899 10900 10903 10905 10907 10909 10911 10912 10914 10915 10917 10918 10920 10922 10923 10924 10925 10926 10927 10928 10929 10930 10931 10932 10932 10932 10932 10932 10932 10931 10931
10627 10636 10644 10649 10655 10666 10677 10681 10682 10692 10705 10709 10712 10718 10722 10730 10744 10751 10753 10757 10766 10774 10781 10785 10786 10785 10786 10793 10804 10813 10819 10824 10826 10828 10832 10837 10839 10841 10844 10844 10845 10850 10853 10855 10858 10862 10865 10867 10871 10875 10879 10881 10884 10886 10889 10891 10893 10895 10898 10900 10902 10904 10905 10906 10908 10909 10911 10912 10914 10916 10917 10917 10919 10920 10921 10922 10923 10924 10925 10926 10927 10927 10927 10927 10926 10925 10924
10618 10625 10631 10637 10643 10654 10664 10668 10672 10685 10697 10699 10701 10710 10719 10728 10738 10742 10745 10753 10764 10771 10774 10776 10778 10782 10787 10794 10801 10806 10810 10815 10819 10823 10829 10833 10835 10838 10840 10841 10844 10848 10849 10851 10855 10858 10860 10862 10867 10870 10873 10876 10879 10881 10884 10886 10888 10891 10893 10894 10896 10898 10899 10900 10902 10903 10905 10906 10908 10910 10910 10911 10912 10914 10915 10916 10917 10918 10919 10920 10921 10921 10921 10921 10921 10920 10919
10608 10615 10620 10623 10629 10640 10652 10659 10666 10679 10688 10692 10699 10709 10716 10723 10732 10738 10745 10754 10761 10766 10769 10772 10776 10781 10785 10790 10795 10799 10803 10808 10814 10821 10826 10828 10831 10834 10837 10839 10842 10844 10846 10848 10851 10853 10855 10858 10862 10865 10867 10871 10873 10876 10878 10881 10883 10886 10887 10888 10890 10892 10893 10895 10896 10897 10898 10900 10902 10904 10904 10905 10906 10907 10908 10910 10911 10912 10914 10915 10915 10915 10916 10916 10915 10915 10914
10594 10601 10607 10612 10619 10630 10641 10650 10659 10670 10680 10688 10697 10703 10709 10719 10730 10737 10743 10749 10757 10762 10765 10768 10772 10777 10782 10787 10792 10795 10797 10801 10808 10816 10821 10823 10826 10829 10833 10836 10838 10840 10843 10845 10847 10849 10851 10853 10857 10860 10863 10865 10868 10870 10873 10875 10877 10879 10881 10883 10884 10886 10887 10889 10890 10891 10893 10894 10896 10898 10898 10899 10900 10902 10903 10905 10906 10907 10909 10909 10910 10910 10910 10910 10910 10909 10909
10583 10589 10595 10602 10611 10622 10634 10646 10655 10665 10676 10686 10694 10698 10704 10714 10724 10730 10736 10745 10753 10757 10759 10763 10768 10774 10779 10783 10786 10789 10791 10795 10802 10810 10815 10819 10822 10826 10830 10832 10833 10835 10838 10840 10842 10844 10846 10849 10852 10855 10857 10860 10863 10865 10867 10868 10870 10873 10875 10877 10878 10879 10881 10883 10885 10886 10887 10888 10890 10892 10893 10895 10896 10897 10899 10900 10901 10903 10903 10904 10905 10905 10904 10905 10905 10904 10904
10580 10587 10592 10600 10608 10618 10632 10645 10652 10659 10670 10681 10688 10694 10700 10710 10718 10725 10732 10740 10746 10749 10753 10758 10763 10769 10773 10776 10779 10783 10787 10791 10797 10803 10809 10814 10818 10821 10824 10826 10827 10830 10834 10836 10837 10839 10842 10845 10847 10850 10852 10855 10857 10859 10861 10863 10865 10868 10870 10871 10871 10873 10876 10877 10879 10881 10882 10883 10885 10887 10889 10890 10891 10892 10894 10896 10897 10898 10898 10899 10899 10899 10899 10899 10899 10899 10899
10570 10575 10581 10591 10600 10610 10626 10638 10644 10651 10663 10675 10684 10690 10695 10703 10713 10721 10728 10734 10739 10743 10748 10753 10757 10762 10767 10771 10774 10778 10782 10786 10791 10796 10802 10808 10812 10816 10819 10821 10822 10825 10829 10831 10833 10835 10838 10840 10842 10844 10847 10850 10852 10853 10856 10858 10860 10862 10864 10866 10866 10868 10870 10872 10874 10876 10877 10878 10880 10882 10883 10884 10885 10887 10889 10890 10891 10892 10893 10893 10893 10893 10893 10894 10895 10895 10895
10561 10565 10571 10582 10591 10604 10620 10632 10638 10647 10660 10671 10679 10683 10688 10696 10706 10714 10720 10727 10732 10737 10742 10748 10752 10757 10761 10766 10769 10773 10777 10781 10785 10790 10795 10801 10806 10811 10814 10816 10818 10821 10824 10827 10829 10831 10833 10835 10837 10840 10842 10845 10847 10849 10851 10853 10855 10857 10859 10861 10862 10863 10866 10867 10869 10870 10871 10872 10874 10875 10876 10878 10880 10882 10883 10884 10885 10886 10886 10886 10886 10886 10887 10888 10889 10889 10889
10558 10563 10570 10579 10590 10603 10617 10626 10632 10643 10656 10665 10670 10675 10682 10690 10698 10705 10712 10719 10725 10731 10738 10743 10747 10751 10755 10760 10764 10768 10772 10775 10779 10783 10788 10794 10800 10805 10808 10811 10813 10816 10819 10821 10824 10826 10828 10830 10833 10835 10837 10840 10841 10843 10845 10848 10850 10851 10853 10855 10856 10858 10861 10862 10863 10865 10866 10867 10868 10869 10870 10872 10875 10877 10877 10877 10879 10880 10879 10879 10880 10881 10881 10882 10882 10883 10883
10553 10558 10563 10572 10583 10597 10608 10614 10620 10633 10646 10654 10659 10666 10675 10683 10689 10697 10705 10712 10719 10725 10732 10737 10741 10745 10749 10753 10758 10763 10766 10769 10772 10776 10781 10788 10794 10798 10801 10805 10808 10811 10814 10816 10818 10820 10822 10825 10828 10830 10832 10834 10835 10837 10840 10842 10844 10846 10847 10849 10851 10853 10854 10856 10857 10858 10859 10861 10861 10862 10864 10867 10869 10870 10870 10870 10871 10872 10872 10873 10873 10874 10875 10876 10876 10876 10876
10547 10552 10557 10566 10580 10593 10601 10606 10616 10631 10643 10650 10655 10663 10671 10678 10684 10692 10699 10706 10712 10719 10725 10730 10734 10738 10742 10746 10751 10756 10760 10762 10765 10769 10775 10781 10786 10791 10794 10798 10801 10805 10808 10810 10812 10814 10816 10819 10822 10824 10826 10827 10829 10831 10834 10836 10838 10839 10841 10843 10846 10847 10847 10848 10850 10851 10853 10854 10854 10854 10858 10862 10863 10861 10861 10862 10864 10865 10865 10865 10865 10866 10868 10869 10869 10869 10869
10542 10548 10555 10566 10580 10594 10602 10608 10621 10637 10647 10651 10655 10661 10667 10673 10679 10686 10692 10699 10705 10711 10718 10723 10728 10732 10736 10740 10745 10750 10753 10755 10759 10763 10768 10773 10778 10783 10787 10791 10795 10799 10801 10804 10807 10809 10811 10813 10816 10818 10820 10822 10823 10825 10827 10829 10831 10833 10835 10838 10839 10839 10840 10841 10843 10845 10847 10847 10847 10848 10851 10855 10855 10854 10853 10855 10857 10858 10858 10858 10858 10859 10860 10861 10861 10862 10861
10540 10546 10554 10565 10580 10592 10599 10605 10615 10627 10633 10637 10642 10649 10656 10664 10671 10678 10685 10692 10699 10705 10711 10717 10722 10726 10730 10734 10739 10743 10746 10749 10753 10756 10760 10764 10769 10775 10779 10784 10787 10790 10794 10797 10800 10802 10805 10808 10810 10812 10814 10815 10817 10819 10820 10822 10825 10828 10830 10831 10831 10832 10834 10836 10837 10838 10840 10840 10840 10841 10843 10846 10848 10848 10847 10848 10849 10850 10850 10851 10852 10852 10853 10854 10854 10854 10853
10542 10549 10558 10568 10579 10589 10595 10600 10607 10616 10623 10629 10635 10641 10649 10657 10666 10674 10681 10688 10694 10700 10706 10711 10716 10721 10725 10728 10732 10735 10739 10743 10746 10748 10752 10757 10761 10766 10771 10775 10779 10782 10786 10790 10793 10796 10799 10802 10804 10806 10807 10808 10810 10812 10814 10816 10819 10821 10823 10824 10825 10826 10828 10830 10831 10831 10832 10832 10833 10833 10834 10836 10839 10840 10841 10841 10842 10842 10842 10843 10844 10844 10845 10846 10846 10846 10845
10540 10548 10556 10566 10577 10585 10591 10596 10603 10610 10618 10626 10633 10639 10646 10654 10663 10671 10677 10683 10689 10694 10699 10703 10709 10714 10719 10722 10724 10728 10732 10735 10737 10740 10745 10750 10754 10758 10762 10766 10771 10775 10780 10783 10786 10789 10793 10796 10798 10800 10800 10802 10803 10805 10807 10810 10812 10814 10816 10818 10819 10819 10821 10823 10824 10824 10823 10824 10825 10825 10826 10828 10830 10831 10832 10834 10834 10833 10834 10834 10835 10835 10836 10837 10837 10836 10836
10533 10541 10550 10561 10569 10574 10579 10586 10594 10602 10612 10621 10628 10635 10641 10649 10657 10664 10670 10675 10681 10686 10690 10695 10701 10706 10710 10714 10717 10720 10724 10727 10730 10734 10739 10743 10747 10750 10754 10758 10763 10768 10772 10775 10778 10781 10785 10788 10790 10791 10793 10795 10797 10798 10800 10802 10804 10806 10808 10810 10811 10812 10814 10816 10816 10815 10814 10815 10817 10818 10819 10820 10821 10821 10823 10824 10825 10825 10826 10826 10827 10827 10827 10827 10827 10826 10825
10526 10535 10545 10554 10559 10563 10569 10578 10587 10595 10604 10613 10620 10627 10634 10642 10650 10657 10663 10668 10672 10677 10682 10687 10692 10697 10702 10706 10709 10712 10715 10720 10724 10727 10731 10735 10738 10742 10745 10750 10755 10760 10763 10767 10770 10773 10776 10778 10781 10783 10785 10788 10790 10791 10793 10795 10797 10798 10800 10801 10803 10804 10805 10806 10806 10806 10807 10808 10809 10809 10810 10811 10812 10812 10813 10814 10816 10816 10817 10817 10818 10819 10819 10819 10818 10817 10816
10520 10530 10539 10547 10551 10557 10565 10575 10582 10588 10596 10604 10612 10619 10626 10634 10641 10648 10653 10658 10663 10668 10673 10679 10683 10687 10693 10698 10701 10704 10708 10712 10716 10718 10722 10726 10729 10732 10737 10742 10748 10752 10756 10758 10761 10764 10767 10769 10771 10774 10777 10780 10782 10783 10785 10786 10788 10790 10791 10793 10794 10795 10796 10796 10797 10798 10799 10799 10800 10801 10802 10802 10803 10803 10804 10805 10806 10807 10808 10808 10809 10810 10811 10811 10810 10809 10808
10512 10521 10528 10535 10541 10549 10559 10567 10574 10581 10588 10597 10605 10612 10618 10626 10633 10639 10644 10650 10655 10660 10666 10670 10674 10679 10684 10689 10692 10695 10698 10702 10706 10708 10712 10716 10720 10723 10729 10735 10740 10745 10748 10750 10753 10756 10759 10761 10763 10764 10767 10770 10772 10773 10775 10778 10780 10781 10783 10784 10785 10786 10786 10787 10788 10789 10790 10791 10792 10792 10793 10793 10794 10794 10794 10795 10796 10798 10798 10799 10799 10800 10801 10801 10800 10800 10799
10503 10511 10518 10525 10534 10544 10553 10560 10567 10574 10581 10589 10598 10605 10611 10618 10625 10630 10635 10641 10647 10652 10657 10660 10665 10670 10675 10678 10681 10684 10688 10693 10696 10699 10703 10707 10709 10713 10721 10728 10733 10736 10739 10742 10746 10749 10752 10753 10754 10756 10758 10760 10762 10764 10766 10768 10771 10772 10773 10773 10774 10776 10777 10778 10779 10780 10781 10782 10783 10783 10784 10784 10784 10784 10784 10785 10786 10788 10789 10789 10789 10789 10790 10790 10790 10789 10788
10498 10505 10512 10519 10529 10539 10547 10553 10561 10567 10574 10582 10590 10597 10602 10609 10616 10620 10626 10632 10638 10642 10647 10651 10656 10661 10664 10667 10670 10674 10678 10684 10687 10690 10693 10697 10699 10705 10714 10721 10724 10727 10731 10735 10738 10742 10744 10745 10746 10748 10750 10751 10753 10754 10756 10758 10760 10761 10761 10762 10764 10766 10767 10768 10770 10771 10772 10773 10774 10774 10774 10775 10774 10774 10774 10775 10776 10777 10778 10778 10778 10778 10779 10780 10779 10778 10777
10493 10500 10507 10514 10523 10532 10539 10546 10553 10560 10566 10574 10581 10588 10595 10602 10607 10611 10617 10623 10628 10633 10637 10641 10645 10648 10651 10656 10660 10664 10670 10676 10679 10680 10683 10687 10691 10698 10708 10714 10716 10718 10723 10726 10729 10732 10735 10736 10737 10739 10741 10742 10744 10745 10746 10749 10750 10751 10751 10752 10755 10756 10758 10759 10760 10761 10762 10763 10764 10764 10764 10764 10764 10764 10764 10765 10765 10766 10766 10767 10768 10767 10767 10768 10769 10767 10766
10486 10493 10500 10507 10515 10523 10531 10538 10544 10551 10558 10565 10573 10580 10587 10592 10596 10602 10609 10615 10619 10623 10627 10630 10633 10638 10644 10649 10653 10658 10664 10669 10671 10672 10675 10680 10686 10693 10701 10704 10705 10707 10711 10714 10717 10720 10723 10726 10728 10730 10731 10732 10734 10736 10737 10739 10741 10742 10743 10744 10745 10747 10749 10750 10750 10751 10753 10753 10754 10754 10754 10754 10755 10755 10754 10755 10755 10755 10755 10757 10757 10756 10755 10757 10758 10757 10756
10480 10486 10492 10497 10504 10511 10519 10526 10534 10542 10550 10557 10565 10572 10578 10583 10589 10596 10602 10606 10609 10613 10617 10620 10623 10628 10634 10639 10644 10649 10655 10660 10662 10663 10666 10671 10678 10686 10690 10691 10692 10695 10699 10702 10705 10709 10713 10717 10719 10720 10721 10722 10725 10727 10728 10730 10732 10733 10734 10735 10736 10739 10740 10740 10740 10741 10743 10743 10744 10744 10744 10744 10745 10745 10744 10745 10745 10745 10745 10746 10746 10745 10745 10746 10747 10747 10746
10474 10479 10485 10490 10497 10504 10512 10520 10529 10537 10545 10552 10558 10565 10571 10577 10583 10587 10590 10594 10598 10603 10606 10607 10610 10616 10623 10630 10636 10641 10647 10651 10653 10655 10657 10661 10669 10676 10678 10679 10681 10685 10689 10691 10694 10698 10702 10705 10708 10709 10711 10713 10715 10717 10719 10721 10722 10724 10725 10726 10727 10729 10729 10729 10729 10731 10732 10733 10734 10735 10734 10734 10735 10735 10734 10734 10734 10735 10735 10735 10735 10735 10735 10735 10735 10735 10735
10467 10472 10478 10485 10492 10500 10509 10519 10527 10534 10540 10545 10549 10555 10561 10566 10569 10573 10577 10582 10588 10592 10593 10594 10598 10606 10615 10623 10629 10633 10638 10642 10644 10646 10648 10653 10659 10665 10667 10668 10671 10674 10678 10681 10684 10687 10690 10693 10696 10698 10700 10702 10704 10707 10709 10710 10712 10714 10715 10716 10717 10718 10719 10719 10719 10720 10722 10723 10724 10724 10724 10724 10724 10723 10722 10723 10724 10724 10723 10723 10724 10724 10725 10724 10722 10722 10722
10463 10468 10474 10480 10488 10496 10505 10513 10520 10526 10531 10536 10541 10547 10552 10555 10558 10563 10568 10572 10577 10580 10580 10582 10587 10597 10606 10613 10618 10622 10626 10630 10633 10635 10638 10643 10648 10652 10655 10657 10660 10663 10666 10670 10673 10676 10678 10681 10684 10686 10689 10691 10693 10696 10697 10699 10701 10703 10704 10704 10706 10708 10709 10709 10709 10710 10711 10711 10712 10713 10713 10713 10713 10712 10711 10712 10712 10712 10711 10710 10711 10712 10712 10711 10710 10709 10708
10459 10464 10470 10476 10482 10489 10497 10504 10511 10517 10524 10531 10537 10544 10548 10550 10552 10556 10558 10561 10566 10569 10570 10572 10580 10589 10597 10603 10607 10611 10614 10619 10622 10625 10628 10632 10636 10640 10643 10646 10649 10652 10655 10659 10662 10665 10668 10670 10672 10675 10677 10679 10682 10684 10686 10688 10690 10692 10692 10693 10695 10697 10698 10697 10698 10698 10698 10698 10699 10700 10701 10701 10701 10700 10700 10700 10700 10700 10699 10698 10698 10698 10698 10697 10696 10695 10695
10454 10459 10463 10469 10474 10481 10487 10495 10502 10509 10516 10522 10529 10534 10538 10541 10545 10549 10550 10553 10558 10561 10563 10567 10575 10582 10587 10592 10596 10600 10605 10609 10613 10616 10619 10622 10626 10630 10634 10637 10640 10643 10645 10648 10651 10654 10657 10659 10661 10663 10665 10667 10670 10672 10675 10677 10679 10680 10681 10682 10684 10685 10686 10686 10686 10687 10686 10686 10686 10688 10689 10689 10689 10688 10687 10687 10687 10687 10687 10687 10686 10686 10685 10684 10683 10682 10682
10450 10453 10457 10461 10467 10473 10480 10487 10494 10500 10507 10512 10518 10524 10529 10534 10539 10543 10544 10547 10552 10556 10559 10563 10568 10572 10575 10578 10583 10589 10594 10599 10602 10606 10609 10612 10616 10621 10625 10628 10630 10633 10636 10638 10641 10643 10645 10648 10650 10652 10654 10656 10658 10660 10663 10665 10667 10668 10670 10671 10672 10673 10674 10675 10675 10675 10675 10675 10675 10676 10677 10677 10676 10675 10675 10675 10675 10675 10675 10675 10674 10673 10673 10672 10671 10670 10670
10446 10448 10451 10456 10460 10466 10473 10479 10485 10490 10495 10501 10508 10514 10520 10525 10531 10534 10537 10540 10544 10548 10551 10554 10558 10561 10564 10568 10573 10579 10583 10587 10591 10595 10600 10603 10607 10612 10615 10617 10620 10623 10625 10627 10630 10632 10634 10636 10638 10640 10642 10644 10646 10648 10650 10652 10654 10655 10657 10658 10660 10661 10662 10663 10663 10664 10664 10664 10664 10665 10665 10665 10664 10663 10663 10663 10663 10663 10662 10662 10662 10661 10661 10659 10658 10658 10658
10443 10445 10447 10450 10454 10459 10465 10470 10475 10480 10486 10491 10497 10503 10508 10514 10520 10524 10528 10531 10534 10537 10540 10544 10548 10552 10555 10559 10564 10569 10573 10577 10581 10585 10589 10593 10597 10601 10604 10606 10609 10611 10614 10617 10619 10621 10623 10625 10627 10629 10630 10632 10633 10635 10637 10639 10641 10643 10644 10646 10647 10648 10649 10650 10651 10652 10653 10654 10654 10654 10654 10653 10652 10651 10650 10650 10651 10650 10650 10649 10649 10649 10648 10647 10646 10646 10645
10442 10443 10445 10447 10450 10454 10458 10463 10467 10471 10476 10481 10487 10492 10497 10503 10509 10513 10517 10520 10523 10526 10529 10534 10537 10540 10544 10549 10553 10558 10562 10566 10570 10575 10578 10582 10586 10590 10593 10596 10598 10600 10603 10606 10609 10611 10613 10614 10615 10617 10619 10620 10621 10623 10625 10626 10628 10630 10632 10633 10634 10635 10636 10638 10639 10640 10641 10642 10642 10643 10643 10642 10641 10639 10638 10638 10638 10638 10637 10637 10636 10636 10635 10635 10634 10634 10633
10441 10441 10442 10444 10447 10450 10453 10456 10460 10463 10467 10472 10477 10483 10488 10494 10499 10504 10507 10511 10514 10517 10520 10524 10528 10531 10535 10539 10544 10549 10553 10558 10562 10566 10569 10572 10575 10579 10582 10585 10587 10590 10594 10596 10598 10599 10601 10602 10604 10606 10608 10609 10610 10612 10613 10614 10616 10617 10619 10620 10621 10622 10623 10624 10625 10626 10627 10628 10629 10629 10630 10631 10630 10629 10627 10627 10626 10626 10625 10624 10624 10624 10623 10623 10622 10622 10622
10439 10440 10441 10442 10444 10446 10448 10450 10453 10457 10461 10465 10469 10474 10479 10483 10488 10493 10497 10501 10505 10507 10510 10513 10517 10520 10524 10529 10534 10540 10545 10549 10553 10556 10559 10562 10564 10568 10571 10573 10576 10579 10583 10585 10586 10587 10588 10590 10592 10595 10597 10598 10599 10600 10601 10602 10603 10605 10606 10607 10608 10609 10610 10611 10612 10613 10614 10614 10615 10615 10616 10617 10618 10618 10617 10616 10615 10614 10613 10613 10612 10612 10611 10611 10611 10610 10609
10436 10437 10438 10440 10441 10442 10443 10445 10448 10451 10454 10457 10461 10464 10469 10473 10477 10481 10486 10490 10493 10496 10499 10502 10506 10509 10514 10519 10524 10529 10534 10538 10542 10545 10548 10550 10553 10557 10560 10562 10564 10566 10570 10573 10574 10575 10577 10578 10581 10583 10585 10586 10587 10588 10588 10589 10590 10591 10593 10594 10595 10596 10597 10598 10599 10600 10600 10601 10602 10603 10603 10604 10605 10605 10605 10604 10603 10603 10602 10602 10601 10601 10600 10599 10598 10597 10596
10432 10433 10435 10436 10438 10438 10439 10441 10443 10446 10449 10451 10454 10457 10460 10464 10468 10471 10475 10478 10482 10485 10488 10492 10495 10499 10503 10508 10513 10518 10522 10526 10530 10533 10536 10539 10542 10545 10547 10550 10552 10554 10556 10559 10561 10562 10564 10566 10569 10571 10572 10573 10574 10574 10575 10576 10577 10579 10580 10581 10582 10583 10584 10585 10586 10587 10588 10589 10589 10590 10591 10591 10592 10592 10592 10592 10591 10590 10589 10589 10588 10588 10588 10587 10586 10584 10583
10429 10430 10431 10432 10434 10434 10435 10437 10439 10442 10444 10446 10449 10451 10454 10457 10460 10463 10466 10469 10472 10475 10478 10481 10485 10489 10493 10497 10502 10506 10511 10515 10518 10522 10524 10527 10530 10532 10535 10537 10540 10542 10544 10546 10547 10549 10551 10553 10555 10557 10558 10560 10561 10561 10562 10564 10565 10566 10567 10568 10570 10571 10572 10572 10573 10574 10575 10576 10577 10578 10578 10579 10578 10578 10578 10579 10579 10578 10577 10577 10577 10576 10575 10574 10573 10572 10571
10424 10426 10427 10428 10429 10430 10431 10433 10434 10436 10438 10440 10443 10445 10448 10450 10453 10455 10458 10460 10463 10466 10469 10472 10475 10479 10482 10486 10490 10494 10498 10502 10506 10509 10512 10514 10517 10520 10522 10524 10527 10529 10531 10533 10534 10536 10538 10540 10542 10543 10545 10547 10548 10549 10550 10551 10552 10553 10554 10555 10557 10558 10558 10559 10560 10560 10561 10562 10563 10564 10565 10565 10564 10564 10565 10566 10566 10565 10564 10565 10565 10564 10563 10561 10559 10559 10558
10419 10420 10421 10423 10424 10425 10427 10428 10430 10431 10432 10434 10436 10438 10441 10443 10446 10448 10450 10453 10455 10458 10460 10463 10465 10468 10471 10475 10478 10482 10485 10489 10492 10496 10499 10502 10504 10507 10510 10511 10514 10516 10518 10519 10521 10523 10525 10527 10529 10530 10532 10534 10535 10536 10537 10538 10539 10540 10541 10542 10543 10544 10544 10545 10545 10546 10547 10548 10549 10550 10551 10551 10551 10550 10550 10551 10551 10550 10550 10550 10551 10550 10548 10546 10545 10544 10543